Regional Weather Roundup
Issued by NWS

Home | Current Version | Previous Version | Text Only | Print | Product List | Glossary On
Versions: 1 2 3 4 5 6 7 8 9 10 11 12 13 14 15 16 17 18 19 20 21 22 23 24 25 26 27 28 29 30 31 32 33 34 35 36 37 38 39 40 41 42 43 44 45 46 47 48 49 50
737
ASUS43 KMPX 211410
RWRMN
WEATHER ROUNDUP FOR MINNESOTA
NATIONAL WEATHER SERVICE TWIN CITIES/CHANHASSEN MN
800 AM CST TUE FEB 21 2017


NOTE: "FAIR" INDICATES FEW OR NO CLOUDS BELOW 12,000 FEET WITH NO
SIGNIFICANT WEATHER AND/OR OBSTRUCTIONS TO VISIBILITY. N/A MEANS
CURRENT SKY AND/OR WEATHER CONDITIONS ARE NOT AVAILABLE.

MNZ060>063-068>070-211500-
   Twin Cities Metro

CITY           SKY/WX    TMP DP  RH WIND       PRES   REMARKS
TWIN CITIES    FOG       32  30  92 SE6       29.90R VSB 1/16WCI  26
ST PAUL        FOG       32  32 100 SE7       29.91R VSB<1/4 WCI  26
CRYSTAL        FOG      N/A N/A N/A SE5       29.87S VSB<1/4
BLAINE         FOG       34  34 100 S7        29.88S VSB 1/4 WCI  28
LAKEVILLE      FOG       30  30 100 CALM      29.90R VSB 1/4
EDEN PRAIRIE   FOG       32  30  92 CALM      29.88S VSB<1/4
SOUTH ST PAUL  FOG       32  32 100 CALM      29.90S VSB<1/4
LAKE ELMO      FOG       34  34 100 S3        29.90S VSB<1/4
$$
MNZ001>005-007-008-013>017-022>024-027-028-211500-
   Northwest Minnesota

CITY           SKY/WX    TMP DP  RH WIND       PRES   REMARKS
BEMIDJI        CLOUDY    31  31 100 CALM      29.75S FOG
HALLOCK        CLOUDY    32  30  93 CALM      29.73F
ROSEAU         CLOUDY    32  27  80 S6        29.75S HAZE    WCI  26
WARROAD        LGT SNOW  30  27  86 S5        29.76R VSB 3/4 WCI  25
THIEF RVR FALL CLEAR     31  30  96 E7        29.74S FOG     WCI  24
CROOKSTON      CLEAR     32  32 100 SE7       29.73S FOG     WCI  26
FOSSTON        CLEAR     30  30 100 SE5       29.73F FOG     WCI  25
DETROIT LAKES  CLOUDY    32  32 100 SE7       29.74F FOG     WCI  26
MOORHEAD       CLEAR     36  30  80 S13       29.71F
PARK RAPIDS    PTCLDY    32  29  88 SE6       29.75F FOG     WCI  26
MAHNOMEN       FAIR      34  31  89 SE7       29.72F WCI  28
$$
MNZ006-009>011-018-025>026-211500-
   North Central Minnesota

CITY           SKY/WX    TMP DP  RH WIND       PRES   REMARKS
BAUDETTE       CLOUDY    32  31  96 S6        29.75S FOG     WCI  26
FLAG ISLAND    CLOUDY    32  30  93 SW10      29.74R FOG     WCI  24
INTL FALLS     CLOUDY    33  30  88 SW6       29.76R FOG     WCI  28
WASKISH        FOG       34  34 100 CALM      29.77S VSB<1/4
BIG FORK       FOG       34  32  93 SW5       29.78R VSB 3/4 WCI  30
LONGVILLE      FOG       32  32 100 S3        29.78F VSB 3/4
GRAND RAPIDS   FOG       33  32  96 S5        29.81S VSB 1/4 WCI  29
CRANE LAKE     CLOUDY    32  30  93 CALM      29.79R
ORR            CLOUDY    34  30  86 SW3       29.76R
COOK           CLOUDY    34  32  93 SW5       29.78S FOG     WCI  30
WALKER           N/A     31  30  99 SE3       29.76S FOG
$$
MNZ012-019>021-037-211500-
   Northeast Minnesota

CITY           SKY/WX    TMP DP  RH WIND       PRES   REMARKS
DULUTH         FOG       33  33 100 W10       29.81R VSB 1/4 WCI  25
ELY            CLOUDY    34  32  93 W8        29.77R WCI  27
HIBBING        FOG       32  32 100 SW5       29.79R VSB 1   WCI  27
EVELETH        CLOUDY    34  33  96 SW8       29.79S FOG     WCI  27
DULUTH HARBOR  CLOUDY    36  34  93 CALM      29.85R
TWO HARBORS    CLOUDY    37  32  81 W6        29.78S
SILVER BAY     CLOUDY    36  34  93 CALM      29.77R
GRAND MARAIS     N/A     38  32  79 SW14      29.76R
G MARAIS ARPRT CLOUDY    32  27  80 W6        29.73S WCI  26
$$
MNZ029>031-032-039>041-046>048-054>057-064-211500-
   West Central Minnesota

CITY           SKY/WX    TMP DP  RH WIND       PRES   REMARKS
FERGUS FALLS   CLEAR     37  30  75 SE8       29.76F
WHEATON        PTCLDY    39  32  75 SE15      29.74S
MORRIS         CLEAR     34  32  93 SE10      29.76F WCI  26
ALEXANDRIA     CLEAR     34  31  88 SE9       29.78F WCI  27
ELBOW LAKE     FAIR      34  32  91 E12       29.74F WCI  26
WADENA         CLEAR     30  30 100 E3        29.76F
GLENWOOD       CLEAR     32  30  93 SE9       29.79S WCI  24
APPLETON       CLEAR     37  32  81 SE7       29.77F
BENSON         CLOUDY    36  30  80 S10       29.80F
ORTONVILLE     CLEAR     36  30  80 SE13      29.74F
WILLMAR        FAIR      34  34 100 SE7       29.83S WCI  28
$$
MNZ033>034-036-042>043-049>051-058-059-211500-
   Central Minnesota

CITY           SKY/WX    TMP DP  RH WIND       PRES   REMARKS
ST CLOUD       FOG       31  31 100 S7        29.84S VSB 1/4 WCI  24
SAUK CENTRE    FAIR      32  32  99 SE7       29.81S WCI  26
PAYNESVILLE    CLEAR     33  33 100 SE12      29.82F FOG     WCI  24
AITKIN         FOG       34  30  86 S3        29.81S VSB<1/4
PINE RIVER     FOG       30  30 100 SE5       29.84S VSB<1/4 WCI  25
BRAINERD       FOG       30  30 100 SE3       29.82S VSB<1/4
STAPLES        FOG       28  28 100 E3        29.78F VSB 1/4
LONG PRAIRIE   FAIR      32  32 100 E3        29.80F FOG
LITTLE FALLS   FOG       30  30 100 CALM      29.83S VSB 3/4
LITCHFIELD     CLEAR     34  34 100 SE6       29.84F FOG     WCI  29
BUFFALO        FOG       32  31  97 CALM      29.88S VSB<1/4
MAPLE LAKE     FOG       32  32 100 S3        29.87S VSB 1/4
HUTCHINSON     CLOUDY    33  33  99 SE7       29.86F FOG     WCI  27
$$
MNZ037-044-045-052-053-211500-
   East Central Minnesota

CITY           SKY/WX    TMP DP  RH WIND       PRES   REMARKS
PRINCETON      SNOW      34  32  93 S5        29.86S VSB<1/4 WCI  30
MORA           SNOW      32  32 100 S5        29.87S VSB<1/4 WCI  27
CAMBRIDGE      SNOW      34  32  93 S5        29.85S VSB<1/4 WCI  30
RUSH CITY      FOG       32  32 100 S3        29.87S VSB<1/4
MOOSE LAKE     FOG       32  32 100 SW5       29.83R VSB 1/4 WCI  27
HINCKLEY       FOG       32  32 100 SW7       29.85F VSB<1/4 WCI  26
CLOQUET        FOG       34  32  93 SW6       29.82R VSB 1/4 WCI  29
MCGREGOR       CLOUDY    32  32 100 SW3       29.82F VSB<1/4
$$
MNZ071>073-080-081-089-090-097-098-211500-
   Southwest Minnesota

CITY           SKY/WX    TMP DP  RH WIND       PRES   REMARKS
MONTEVIDEO     CLEAR     37  37 100 S10       29.80F
GRANITE FALLS  CLEAR     38  34  87 SE13      29.82F
CANBY          CLEAR     48  36  63 SW18G25   29.78S
MARSHALL       CLEAR     43  35  73 SW25      29.78F
REDWOOD FALLS  CLEAR     36  32  85 S8        29.84S
OLIVIA         CLEAR     34  32  93 S7        29.83S WCI  28
PIPESTONE      CLEAR     39  30  70 S12       29.82S
WINDOM         CLEAR     37  36  93 SW7       29.87R
WORTHINGTON    CLEAR     42  35  76 S17       29.87S
JACKSON        CLEAR     34  32  93 S10       29.89F WCI  26
TRACY          CLEAR     45  38  76 SW23G29   29.82S
SLAYTON        CLEAR     41  35  78 S22       29.85S
$$
MNZ065>067-074>077-082>085-091>093-211500-
   South Central Minnesota

CITY           SKY/WX    TMP DP  RH WIND       PRES   REMARKS
MANKATO          N/A     34  34 100 S8        29.89F WCI  27
NEW ULM        CLEAR     34  32  93 S6        29.87F WCI  29
ST JAMES       CLEAR     36  36 100 S9        29.88F
FAIRMONT       CLEAR     35  34  96 S9        29.91F WCI  28
GLENCOE        CLEAR     35  35 100 S3        29.86S FOG
FARIBAULT      MOCLDY    34  34 100 S6        29.90F FOG     WCI  29
OWATONNA       CLEAR     36  34  93 SE3       29.91S FOG
WASECA         CLEAR     34  34 100 S7        29.92S FOG     WCI  28
ALBERT LEA     FOG       34  34 100 SW5       29.93R VSB 1   WCI  30
$$
MNZ078>079-086>088-094>096-211500-
   Southeast Minnesota

CITY           SKY/WX    TMP DP  RH WIND       PRES   REMARKS
ROCHESTER      FOG       31  31 100 S5        29.92S VSB 1/4 WCI  26
RED WING       FOG       32  30  93 CALM      29.91S VSB 1
STANTON        PTCLDY    34  32  94 CALM      29.89S FOG
DODGE CENTER   MOCLDY    36  34  93 SW5       29.91R FOG
WINONA         PTCLDY    34  34 100 CALM      29.94S FOG
AUSTIN         FOG       30  30 100 CALM      29.93S VSB<1/4
PRESTON        FOG       31  30  96 S5        29.93R VSB<1/4 WCI  26
$$
ABBREVIATIONS USED IN REMARKS
   TC - TEMPERATURES IN CELSIUS
  WCI - WIND CHILL INDEX
   HX - HEAT INDEX
  VSB - VISIBILITY
$$




USA.gov is the U.S. government's official web portal to all federal, state and local government web resources and services.